カタログに戻る

COSMOS 739

運用中軍事LEO
NORAD 7828·PAYLOAD·🇷🇺 Russia

打ち上げ May 28, 1975 から Plesetsk Cosmodrome

Loading…

次のパス (今後24時間)

TLE

最新Source: Space-Track

元期: Sep 14, 2026, 04:42 UTC

1 07828U 75045H   26257.19628318  .00000004  00000-0  12696-3 0  9997
2 07828  74.0219 352.1652 0031234 198.8381 180.3504 12.54208427348747

AllMySatでCOSMOS 739をリアルタイム追跡

Download on the App Store